Wind_Speed
27 26 28 28 26 25 24 22 20 18 17 17 18 19 19 18 17 16 15 15 14 13 13 13 12 13 13 13 12 12 13 13 12 14 17 16 16 12 10 12 10 9 12 13 13 11 5 2 5 6 5 4 4 5 6 6 7 8 9 10 12 14 17
28 28 28 28 27 26 25 23 21 19 19 19 20 20 19 18 17 16 15 14 13 13 13 13 12 12 12 12 12 12 14 14 12 13 16 16 16 14 12 12 12 13 13 11 14 12 6 4 4 4 6 6 3 4 5 5 6 6 9 12 14 17 18
28 28 28 28 27 26 25 24 23 21 21 21 20 20 19 18 17 16 15 13 12 13 13 12 12 12 12 11 11 12 14 15 14 14 15 16 15 14 14 16 17 17 12 8 11 11 7 6 4 4 8 9 5 5 5 8 9 10 13 15 17 19 17
30 30 29 28 28 27 27 26 25 23 22 21 20 19 18 18 17 15 14 12 12 13 12 11 11 12 12 12 12 13 15 15 15 14 14 15 15 14 14 16 18 17 12 10 13 14 10 7 6 5 9 10 7 6 10 14 17 16 15 15 17 19 17
33 32 31 30 29 29 28 27 27 25 23 21 21 19 18 17 16 15 13 13 12 12 12 11 11 11 13 13 14 15 15 15 15 14 14 14 15 15 14 13 14 13 11 12 14 14 13 14 14 8 7 10 6 7 14 18 18 17 16 16 17 18 18
34 34 32 32 31 30 30 29 28 27 25 23 21 20 19 17 16 16 14 13 13 13 12 12 12 12 14 15 16 16 16 15 15 14 14 15 15 15 15 13 13 12 12 12 12 13 16 20 20 12 7 8 7 8 12 13 12 13 14 15 15 16 17
34 34 33 32 32 31 31 31 29 29 27 25 22 21 19 18 17 16 14 14 14 13 13 13 13 13 14 16 17 17 16 16 15 15 15 16 16 15 15 15 14 14 13 12 11 14 17 18 20 17 11 7 9 11 9 8 10 11 11 13 14 15 16
34 33 32 32 33 32 32 31 30 28 27 25 23 21 20 20 18 16 16 16 15 14 15 15 15 15 16 16 17 17 17 17 16 16 17 17 17 17 16 16 16 16 14 13 12 12 13 14 16 19 18 12 7 7 7 8 11 12 10 10 13 15 16
34 33 32 32 32 32 31 31 30 28 26 25 23 22 21 20 18 18 18 16 15 16 16 16 17 17 17 17 18 18 18 18 17 17 18 18 18 18 18 18 18 18 16 14 13 12 12 12 13 15 20 19 11 4 3 4 6 10 11 11 11 13 15
34 33 33 32 31 30 30 30 29 27 26 25 24 23 22 20 19 19 19 17 17 17 17 17 17 18 18 18 19 20 20 19 18 18 18 19 19 19 19 19 19 20 18 16 15 14 12 12 13 13 14 18 16 8 3 2 2 6 10 10 10 12 14
34 34 33 33 31 30 30 29 28 27 27 26 25 24 22 21 21 20 19 19 18 17 17 17 18 18 19 20 20 20 20 19 19 19 19 19 20 20 20 20 20 20 18 17 16 15 14 13 13 13 12 11 11 9 6 4 2 5 9 9 10 12 13
34 34 33 33 32 31 30 28 27 28 29 28 27 25 23 22 22 21 20 20 19 18 18 18 19 20 21 22 22 21 20 20 20 21 19 19 20 21 21 21 20 20 18 17 16 14 15 15 14 14 12 11 10 9 10 9 4 4 7 8 10 11 12
33 33 33 33 32 31 30 27 27 30 31 30 28 26 24 23 22 22 21 21 20 20 20 20 21 22 23 23 23 22 22 21 21 22 22 21 21 21 22 22 20 19 18 18 17 15 15 15 16 15 12 12 13 11 12 13 8 5 7 9 10 11 12
33 33 33 32 31 30 27 26 29 33 33 31 29 27 26 24 23 22 22 22 22 22 22 22 23 24 24 24 23 23 23 22 23 24 24 23 21 21 22 21 19 16 16 16 16 16 16 15 15 15 13 12 14 12 12 13 9 5 7 9 10 11 12
33 32 32 31 30 28 26 28 32 34 33 32 29 28 27 24 22 23 24 24 23 23 23 24 24 24 25 25 24 24 24 24 25 25 24 22 20 20 19 19 17 15 15 16 16 15 15 14 14 14 13 12 13 12 10 10 8 5 6 9 10 11 12
33 32 31 31 29 27 27 31 34 34 33 32 30 28 26 23 23 24 25 25 24 24 24 25 25 25 25 25 25 26 25 25 25 25 24 22 21 19 18 18 17 16 15 16 16 15 14 13 12 12 12 12 11 11 8 7 7 6 7 9 11 12 13
33 32 32 31 29 28 30 33 34 34 33 32 30 28 24 22 24 26 27 26 25 25 25 25 25 24 24 25 26 26 25 24 23 23 23 22 21 19 18 17 16 15 15 15 14 13 12 11 11 10 10 10 10 9 8 7 7 7 8 10 11 12 12
33 33 32 31 29 29 32 34 34 33 33 32 30 27 24 24 26 27 27 27 26 26 25 25 25 24 24 24 25 25 25 23 22 21 21 21 20 19 18 17 16 15 14 14 13 12 10 10 9 8 8 9 9 8 7 6 6 7 9 10 10 10 11
34 33 33 31 30 31 33 34 34 33 33 31 29 27 26 26 27 28 28 27 27 26 26 26 25 25 25 24 25 25 24 22 21 20 19 19 20 20 19 18 17 16 16 15 14 12 10 9 9 8 7 7 7 6 5 5 6 7 8 9 9 10 11
35 34 33 32 30 32 33 34 34 34 32 30 28 28 27 27 27 28 28 27 26 26 26 26 26 25 25 24 25 25 23 22 21 20 19 19 19 19 19 18 17 16 15 15 13 11 9 8 8 8 7 6 6 5 5 6 6 7 7 8 9 10 11
35 34 33 32 31 33 34 34 34 34 31 29 28 28 27 27 27 27 27 27 26 26 26 26 26 26 26 25 25 24 23 23 22 21 20 19 19 18 17 16 15 14 13 13 11 10 8 7 8 9 8 7 7 6 7 7 7 7 7 8 9 10 10
33 33 32 32 32 34 34 33 33 32 30 29 28 27 27 26 27 27 27 27 27 27 27 27 27 27 26 26 25 24 24 24 23 23 22 20 19 17 15 14 12 11 12 12 11 10 8 8 10 11 11 9 8 8 9 8 8 8 8 8 9 9 9
33 33 32 31 32 34 34 33 32 32 30 29 28 27 27 27 27 27 28 28 28 27 27 27 27 27 26 26 25 25 25 25 24 24 23 22 20 17 14 12 11 10 10 12 12 11 10 11 12 13 12 10 9 9 9 9 9 8 8 8 7 7 8
33 33 32 31 32 34 33 32 32 32 31 30 28 27 27 28 28 28 28 29 29 28 27 27 27 27 26 25 26 27 27 26 25 24 23 22 20 17 14 13 11 11 11 13 14 13 12 13 13 12 11 10 8 8 9 9 8 7 7 6 5 5 7
34 33 32 31 33 34 32 32 32 32 32 31 29 28 28 29 29 28 28 29 29 28 27 27 27 27 26 26 27 27 27 26 25 24 23 21 19 16 15 14 14 14 13 14 15 15 14 13 12 11 9 7 6 5 5 6 6 6 6 5 5 6 7
33 32 31 31 33 33 31 31 33 33 32 31 29 29 29 30 30 29 29 29 29 28 27 27 27 27 26 27 27 27 26 26 24 23 22 20 18 16 15 15 17 16 15 15 15 15 15 13 12 10 8 5 3 1 1 1 2 4 5 6 6 6 7
33 31 31 31 33 32 31 32 33 34 33 31 30 30 30 30 30 30 30 29 29 28 27 27 27 27 27 27 26 25 25 24 24 23 21 19 17 15 14 16 19 18 17 16 16 15 14 13 11 8 6 4 2 1 2 4 4 3 4 6 7 7 8
32 31 31 32 32 31 30 32 33 33 33 32 31 31 31 31 31 30 30 30 29 28 28 27 27 27 27 27 26 25 25 24 23 21 19 18 17 15 13 16 18 17 17 16 15 15 13 11 10 7 5 4 3 2 3 5 5 4 4 6 7 7 9
32 31 32 32 32 30 30 32 33 33 33 32 31 31 32 32 31 31 31 30 30 29 28 28 27 27 27 26 26 25 25 24 23 20 18 18 17 14 13 15 16 16 16 15 14 12 11 10 9 7 6 5 4 3 4 4 5 4 5 6 6 8 10
32 32 33 33 32 31 31 32 33 34 33 32 31 31 32 31 31 31 31 31 30 30 29 28 28 28 27 27 26 26 25 24 22 20 19 19 17 15 14 14 14 14 15 13 12 10 7 7 7 7 7 6 4 3 3 4 3 3 5 6 7 8 9
34 33 33 33 32 31 31 32 34 34 33 32 31 31 31 30 30 30 31 31 31 30 29 29 28 28 28 27 27 26 25 23 22 20 20 19 19 18 16 14 13 13 12 11 10 8 6 6 7 9 9 7 4 3 4 4 3 4 5 5 6 6 6
35 34 34 33 33 32 30 31 32 32 32 31 31 30 30 30 29 29 30 31 31 30 29 28 28 28 28 27 27 26 24 23 23 22 22 22 21 21 19 16 14 13 12 12 11 8 7 6 7 10 11 8 6 5 5 5 5 4 3 3 3 4 4
35 35 35 33 32 30 29 29 30 30 30 29 29 29 29 29 28 29 30 30 30 29 28 28 28 28 28 27 27 26 24 25 25 24 24 23 22 22 21 18 15 13 13 13 12 9 8 7 8 11 12 10 8 7 6 6 5 3 2 2 3 5 5
35 34 33 32 30 28 28 29 30 30 29 28 27 27 26 27 27 28 29 29 29 28 28 27 27 28 28 27 27 26 25 25 26 25 24 23 22 23 22 20 17 15 14 13 13 12 11 9 9 11 13 12 10 9 7 6 5 4 4 4 5 5 5
33 32 31 31 29 27 27 29 30 29 28 27 27 26 25 25 25 26 27 29 28 27 27 26 26 28 28 27 27 26 25 25 26 26 24 24 23 22 22 20 19 17 16 16 16 15 14 12 10 11 12 13 12 9 8 7 6 6 6 6 6 6 5
31 30 30 31 30 27 27 28 29 29 28 27 26 26 25 25 25 25 26 28 27 26 26 27 27 27 28 28 27 26 25 25 26 26 25 25 24 23 23 22 21 19 18 18 17 17 17 15 13 11 11 12 12 10 9 8 8 8 8 8 8 7 5
30 30 30 31 29 27 26 27 28 28 28 28 27 26 26 26 25 25 26 27 27 26 27 28 28 27 27 27 27 27 26 25 25 25 26 25 24 23 24 23 22 21 19 19 18 17 17 16 15 12 11 12 12 11 11 10 9 9 10 10 10 8 7
Wind_Direction
171 173 176 176 175 177 177 177 179 180 183 182 179 178 178 180 180 181 184 185 184 188 195 200 199 197 196 193 189 187 187 187 190 182 168 167 174 175 188 199 207 197 174 171 173 158 133 158 199 206 198 172 141 128 112 83 62 55 57 66 75 63 47
176 176 174 173 173 174 173 174 175 174 175 176 178 181 181 183 186 187 190 191 193 198 202 205 202 197 195 191 185 183 181 178 181 185 177 172 173 168 167 168 161 159 159 165 169 157 129 135 171 209 196 196 192 149 121 76 48 59 81 84 73 56 47
175 173 171 170 170 171 169 170 172 170 171 175 177 181 183 184 188 192 196 197 202 206 205 205 203 196 191 188 184 184 184 178 174 179 178 171 169 164 161 159 150 146 146 149 165 161 139 134 150 180 183 188 181 140 97 75 80 92 96 85 64 49 46
173 171 169 168 169 168 167 168 170 171 172 175 176 179 182 184 188 192 196 197 202 206 204 204 204 198 192 186 181 179 181 180 174 174 172 166 164 159 157 159 156 155 157 155 164 168 158 139 137 161 180 182 167 125 97 91 95 97 91 76 58 45 41
174 172 171 170 170 170 168 167 169 171 174 176 176 178 181 184 187 187 190 194 200 203 202 201 198 193 188 182 178 176 176 175 172 171 167 161 163 159 154 157 158 160 158 150 154 163 163 156 150 149 169 175 164 119 112 103 91 85 80 70 58 45 38
177 176 174 173 173 173 172 170 171 174 177 178 179 181 181 185 188 188 192 199 201 200 196 192 186 182 180 177 175 175 173 171 170 170 165 159 161 159 153 151 151 148 140 137 142 146 149 150 145 139 147 159 148 127 118 107 91 81 74 68 60 47 40
179 178 177 176 175 176 177 177 178 181 183 184 185 186 186 189 190 192 199 202 198 194 189 183 177 174 175 175 174 172 170 168 167 167 163 158 156 153 149 144 139 135 130 132 137 138 141 145 140 134 129 118 113 111 99 87 85 75 67 69 61 45 40
180 179 179 178 178 179 181 183 185 188 190 191 190 189 189 190 190 193 200 196 189 188 184 179 174 172 173 173 171 169 165 163 164 161 159 157 152 147 145 140 132 126 123 128 134 137 143 146 141 140 138 126 92 83 84 79 72 61 59 68 58 43 39
181 179 178 179 180 183 186 189 191 192 194 193 189 187 188 189 190 192 192 187 184 184 182 179 174 171 173 171 167 164 160 160 161 157 155 154 150 145 141 137 130 122 119 122 125 128 136 138 137 144 149 144 131 101 68 63 57 54 55 57 50 40 39
182 180 180 181 182 185 189 192 193 193 193 190 186 186 186 187 190 190 187 182 182 182 178 178 175 171 171 169 165 161 157 157 157 153 154 152 148 145 140 134 128 121 117 115 113 114 119 124 127 133 144 146 145 145 114 61 41 42 48 49 36 31 39
184 183 184 184 184 185 187 190 192 191 188 185 184 183 183 185 187 188 186 182 182 181 178 176 173 170 169 166 163 160 156 157 155 151 153 151 146 145 138 131 126 120 116 112 107 106 106 107 112 115 118 128 140 146 134 126 106 41 49 53 33 26 38
185 185 185 185 185 185 186 188 190 189 185 183 183 181 182 185 186 186 187 185 182 180 178 176 173 171 169 164 161 158 156 158 155 149 150 148 145 143 137 130 125 120 117 114 111 108 102 96 94 98 103 104 107 119 121 119 111 57 50 45 35 35 40
184 185 185 185 184 185 186 188 189 186 183 182 183 183 184 186 186 187 187 185 181 179 177 175 172 171 168 165 162 158 157 158 154 148 146 144 141 139 134 130 127 124 124 123 119 116 107 96 90 89 97 103 98 99 107 104 100 84 59 41 38 47 42
183 185 184 184 185 185 187 189 188 184 181 182 184 185 187 187 188 188 185 182 179 178 177 173 172 171 168 164 161 159 159 159 153 147 144 141 138 138 134 131 128 128 133 132 126 121 113 105 98 93 96 106 100 93 95 95 91 82 64 51 49 52 38
183 183 182 183 184 185 187 188 185 182 181 183 186 188 188 187 189 187 183 180 179 179 177 174 172 172 169 165 162 161 161 159 154 149 146 143 141 140 138 135 130 128 133 133 128 123 118 114 110 103 100 103 101 92 89 93 92 79 62 58 56 50 35
181 181 181 181 183 185 187 185 183 182 182 184 187 188 189 188 188 185 181 180 180 179 178 176 175 174 172 168 165 164 165 162 158 155 152 149 146 145 142 136 133 133 134 130 124 123 121 119 118 112 106 106 106 98 90 94 98 90 77 67 56 44 33
180 180 180 181 182 185 185 182 182 183 183 184 186 187 190 189 186 183 181 181 181 180 179 177 177 177 176 173 169 167 167 166 163 161 158 154 152 151 147 142 140 142 141 134 126 125 124 124 124 120 114 113 113 106 97 96 96 96 93 78 60 45 36
180 180 180 180 183 184 183 181 181 183 184 184 185 187 189 188 185 184 183 183 182 182 181 180 178 178 178 175 172 168 167 165 163 161 159 157 157 157 155 150 149 154 156 147 137 134 132 130 132 131 125 121 119 114 108 99 95 101 97 82 65 50 42
180 180 180 181 184 184 182 180 181 184 185 185 186 188 188 186 185 186 186 185 184 183 183 182 181 180 178 175 171 168 167 165 162 159 156 157 162 164 162 160 161 167 169 159 147 143 139 135 138 139 136 130 129 129 122 109 106 109 99 81 67 56 50
180 180 180 181 183 182 181 180 181 184 186 187 186 187 186 185 187 189 188 187 186 185 184 183 182 181 178 175 172 170 169 166 162 160 158 160 166 169 169 170 169 167 166 161 155 151 144 135 134 138 138 136 140 141 122 107 110 112 98 80 68 60 55
179 179 180 181 182 181 180 180 181 184 186 187 186 186 185 185 188 191 191 189 188 186 184 184 184 182 179 177 175 173 171 168 164 162 162 165 169 172 173 174 170 167 168 169 167 164 153 135 131 130 126 126 133 125 105 95 95 95 88 78 71 62 54
178 179 180 180 181 181 180 180 182 185 186 186 186 185 186 187 189 190 191 190 188 188 187 186 185 184 181 179 178 175 171 169 167 166 166 169 172 174 175 173 170 172 177 177 177 174 156 135 129 125 119 118 119 110 97 88 82 79 77 73 67 57 43
176 177 179 180 181 182 181 182 184 185 186 186 186 186 187 189 190 190 189 189 189 189 190 190 189 187 185 182 179 176 173 172 173 172 170 171 173 175 177 177 174 174 174 172 173 170 152 136 130 125 121 117 111 100 87 78 71 68 69 66 57 39 20
175 177 179 181 182 182 181 182 184 185 186 186 186 187 189 191 192 191 190 190 191 192 192 192 192 190 189 187 183 179 177 177 178 178 177 176 176 177 179 181 178 172 165 161 163 159 149 141 135 129 124 115 103 90 76 68 61 55 57 56 42 16 351
175 177 179 181 182 181 181 182 183 184 186 187 187 189 191 193 193 193 192 192 193 194 195 195 194 193 191 189 187 183 181 182 183 182 182 182 181 180 180 178 174 168 163 159 157 155 151 147 141 136 130 118 107 88 68 61 51 40 37 27 12 356 340
174 177 179 181 181 180 180 182 184 185 186 187 189 191 192 194 194 194 194 194 195 196 197 196 195 194 193 191 189 188 187 187 188 185 184 186 184 183 182 176 170 166 164 161 160 159 158 156 154 150 143 139 138 109 54 20 6 9 9 360 350 343 337
174 177 179 181 181 181 181 183 184 186 187 187 189 191 193 194 195 195 196 196 197 197 197 196 195 194 194 192 192 192 191 192 191 189 189 190 187 187 187 180 174 171 169 168 168 168 169 168 167 163 159 164 171 196 259 273 275 298 337 341 331 330 333
175 176 179 181 182 183 183 183 184 185 186 188 191 192 194 195 195 196 197 197 197 198 198 196 195 195 195 195 195 195 194 194 193 192 195 195 193 195 193 186 182 179 176 177 178 179 181 181 179 178 178 186 197 226 262 269 251 256 305 322 316 319 328
176 177 179 181 182 183 184 184 185 185 186 189 193 194 195 196 196 195 196 197 198 197 197 196 196 196 197 196 196 196 195 194 195 197 199 197 196 198 194 188 188 188 186 185 184 185 189 192 195 197 197 205 227 255 262 250 228 245 294 309 310 316 326
177 178 180 182 184 185 185 184 184 184 185 188 191 194 195 196 197 197 195 197 198 197 196 196 197 198 198 198 197 196 195 195 197 200 200 199 201 203 196 191 191 190 187 185 181 183 190 198 205 206 204 215 239 252 235 222 221 269 297 295 301 313 329
178 179 181 184 186 186 185 185 185 185 187 188 191 194 196 196 197 198 197 198 199 199 197 196 198 199 200 200 198 196 196 198 200 201 202 205 211 208 200 196 195 192 190 186 183 187 200 210 210 204 203 213 223 206 201 212 244 288 286 275 290 313 339
180 181 184 187 188 187 186 186 186 187 188 190 191 193 195 196 195 197 199 201 201 201 199 196 197 200 201 201 199 198 199 200 199 201 206 212 214 209 203 201 201 200 200 196 194 202 212 217 213 203 202 208 208 199 209 235 265 287 276 249 284 321 344
183 184 187 189 190 189 187 185 185 186 187 189 190 191 194 196 196 197 200 201 201 202 200 197 198 200 201 202 202 201 203 202 200 203 208 209 207 204 201 201 201 201 200 198 201 211 217 219 216 209 206 211 216 220 237 257 265 268 251 245 290 320 335
186 187 188 189 189 188 188 187 186 186 186 186 187 189 191 195 197 198 199 200 201 202 202 201 200 200 201 205 206 206 207 207 205 207 206 199 196 196 198 200 203 205 204 205 211 218 222 221 217 214 215 220 228 238 254 261 249 230 230 256 288 309 325
188 188 188 188 186 186 187 188 187 185 184 184 185 187 190 194 196 197 198 199 201 203 204 206 206 203 203 206 208 210 213 214 212 210 206 199 197 201 205 209 212 214 215 217 221 223 226 225 221 218 221 226 234 244 252 250 238 229 235 256 277 291 307
186 187 186 186 185 184 185 187 187 186 184 183 184 186 190 193 193 194 195 197 200 204 207 208 210 209 208 207 208 211 215 215 212 211 209 208 209 213 217 218 217 216 218 222 225 227 228 227 227 225 223 225 230 236 239 238 232 230 237 251 265 274 281
186 186 185 185 184 183 184 185 185 186 186 185 185 186 189 191 190 191 192 194 198 203 207 209 211 213 212 211 210 212 214 213 210 210 212 214 217 219 221 220 217 217 220 225 228 230 230 229 230 228 223 220 222 225 228 230 229 229 236 246 256 265 267
Height
805 808 809 811 813 814 816 817 818 819 821 821 822 823 824 825 825 826 827 827 828 829 829 829 830 830 830 831 832 832 833 834 835 835 836 837 838 839 839 840 841 843 843 845 847 850 854 859 861 861 861 861 861 860 861 861 861 861 861 861 861 861 860
805 807 809 811 813 814 815 817 818 819 820 821 822 822 823 824 825 826 827 827 828 829 829 829 829 830 830 830 831 832 833 833 834 835 835 836 837 837 838 840 841 842 844 845 846 848 851 855 859 860 860 860 860 861 861 861 861 861 862 862 862 861 860
804 806 808 810 812 814 815 817 818 819 820 821 821 822 823 824 825 826 826 827 828 829 829 829 829 829 829 830 831 831 832 833 834 835 835 836 837 837 838 839 840 841 843 845 846 848 849 852 855 858 859 859 860 861 861 861 861 861 862 862 862 861 860
802 805 807 809 811 813 814 815 817 819 820 821 821 822 823 824 825 826 827 828 828 829 829 829 829 830 829 830 830 831 832 833 834 834 835 836 837 838 839 839 840 841 842 843 845 846 848 849 853 856 857 859 860 861 862 862 862 862 863 862 862 861 860
800 802 805 807 809 811 813 814 816 818 819 820 821 822 823 824 825 826 827 828 828 828 828 829 829 830 830 830 831 832 833 833 834 834 835 836 837 838 840 840 841 841 842 843 844 845 846 847 850 854 856 858 860 861 862 862 862 863 862 862 862 861 861
799 801 803 805 807 809 811 813 815 816 818 819 820 822 822 823 824 825 826 827 828 828 828 828 829 829 830 830 831 832 833 833 834 835 836 837 838 839 840 841 841 842 843 844 845 845 846 848 849 852 856 858 859 861 862 862 862 863 863 862 862 862 861
797 799 801 803 806 808 810 812 813 815 816 818 819 821 822 823 824 825 826 827 827 827 827 827 828 830 831 831 832 833 833 834 834 835 837 837 839 840 841 842 842 843 843 844 845 846 847 848 849 851 854 857 859 860 861 862 862 862 863 863 862 862 862
795 798 800 802 804 806 809 811 813 814 816 818 819 820 822 823 824 825 826 826 827 827 827 827 828 829 831 832 833 833 834 835 835 836 837 838 840 841 842 842 843 843 844 845 846 847 848 849 849 850 851 854 858 861 862 863 863 863 863 862 862 862 862
794 796 799 802 803 805 808 810 812 814 815 817 819 820 821 822 824 825 826 826 827 827 827 828 828 829 831 832 833 833 834 835 836 837 838 840 841 842 843 843 843 844 845 846 847 848 848 849 849 850 850 850 854 860 863 863 863 863 863 862 862 863 863
792 794 797 800 802 805 807 809 811 813 815 816 818 819 821 822 824 824 825 826 826 827 828 829 829 829 831 832 833 834 835 836 836 838 840 841 842 843 844 844 844 845 846 847 848 849 849 850 850 850 851 851 852 856 860 863 864 863 862 863 863 863 863
791 793 796 798 801 803 806 808 810 812 814 816 817 819 821 822 823 824 825 825 826 827 828 829 830 830 831 832 833 834 835 836 837 839 841 842 843 844 844 845 845 846 847 848 849 850 850 850 850 850 851 852 853 854 857 861 863 863 863 863 863 863 862
790 792 795 797 800 802 804 807 809 811 813 815 816 818 820 821 822 824 824 825 826 827 828 829 830 830 831 832 834 835 836 837 838 840 842 843 844 844 844 845 846 847 849 850 850 852 851 850 850 850 851 853 854 855 856 858 861 863 864 864 863 863 862
789 791 793 796 798 800 803 806 808 810 811 813 816 817 819 820 822 823 824 824 825 827 828 829 829 830 831 833 834 835 836 838 839 841 843 844 844 845 845 846 847 848 849 850 851 851 851 850 850 851 852 854 855 856 856 857 860 863 864 863 863 862 861
787 790 792 795 797 799 802 805 807 808 810 813 815 817 818 820 821 822 823 824 825 827 828 829 830 831 832 833 834 835 837 839 840 841 843 844 844 845 846 847 848 849 850 851 851 851 851 850 851 852 854 855 856 857 857 858 860 862 863 863 863 862 861
786 789 791 794 796 799 801 804 805 807 810 812 814 816 817 819 820 821 822 824 825 827 828 829 830 831 832 833 834 836 838 839 840 841 842 843 844 846 847 847 848 850 851 851 851 851 851 851 851 853 855 856 856 857 858 859 861 862 863 863 862 862 860
785 787 790 792 795 798 800 802 804 806 809 811 813 815 817 818 820 821 822 824 825 826 828 829 830 831 832 833 834 836 838 838 839 840 841 843 844 846 847 848 849 850 851 851 852 852 852 852 853 854 855 856 857 857 859 860 860 862 862 862 862 861 860
784 786 789 791 794 797 799 801 804 806 808 811 813 815 817 818 819 820 822 823 824 826 828 829 830 831 832 833 834 836 838 839 839 840 841 842 844 846 847 848 849 850 851 851 852 853 853 853 854 854 856 857 857 858 859 860 860 861 861 861 861 861 860
782 785 787 790 793 796 798 800 803 806 808 810 812 814 816 817 818 820 821 822 824 826 827 829 830 831 833 834 835 836 837 839 839 840 841 842 844 845 846 847 848 849 849 850 851 852 853 853 854 855 856 857 858 858 859 860 860 860 860 861 861 861 860
781 784 786 789 792 795 797 800 802 805 807 809 811 813 815 816 818 819 821 822 824 825 827 829 830 831 833 834 835 837 838 839 840 840 841 842 843 844 845 845 846 846 847 848 849 851 852 853 854 855 856 857 858 858 859 860 860 860 860 860 860 860 859
779 782 785 788 790 793 796 799 801 804 806 808 810 812 814 815 817 819 821 822 824 825 827 828 830 831 833 834 835 836 837 838 840 840 841 842 843 844 844 845 845 846 847 847 848 850 851 852 853 854 856 857 858 858 859 859 859 859 859 860 860 860 859
778 781 784 787 790 793 796 799 801 803 806 808 809 811 812 814 817 819 820 822 823 825 826 828 830 831 832 834 835 836 837 838 839 840 841 842 843 844 845 846 846 847 848 848 848 850 851 851 852 854 855 857 858 858 858 858 859 859 859 860 860 859 859
777 780 783 786 789 792 795 798 800 803 805 807 808 810 812 814 816 818 820 821 823 825 826 827 829 830 831 833 834 835 836 837 838 839 840 841 843 844 845 846 847 848 848 848 849 850 850 851 852 853 855 857 858 858 858 858 858 859 859 859 859 859 858
776 779 782 785 788 791 794 797 800 802 804 806 808 810 812 814 815 817 819 820 822 824 825 827 828 830 831 832 833 834 835 836 837 838 839 840 842 843 845 846 846 848 848 848 849 850 850 851 852 853 855 856 857 858 857 858 858 859 859 859 859 858 858
775 778 781 784 787 790 793 796 798 801 803 805 807 809 811 813 815 816 818 819 821 822 824 826 828 829 830 831 832 833 834 836 836 837 839 840 841 843 844 845 846 847 847 847 848 849 850 851 852 853 855 856 857 857 857 858 858 859 859 859 858 858 857
774 777 779 782 786 789 792 794 797 800 802 804 806 808 810 812 814 816 817 818 820 822 823 825 827 828 830 831 832 833 834 835 836 837 838 839 841 842 843 844 845 846 847 847 848 849 850 851 851 852 854 856 857 857 857 857 858 858 858 858 858 857 856
772 775 778 781 785 788 791 793 795 798 800 802 805 807 809 811 813 815 816 818 819 821 823 825 826 828 829 830 832 833 834 835 835 837 838 839 840 842 843 844 844 845 846 846 847 848 849 850 851 852 854 855 856 856 856 857 858 858 858 858 857 857 856
771 774 777 781 784 787 789 791 794 797 799 801 804 806 808 810 811 813 815 817 819 820 822 824 825 827 828 830 831 833 834 835 835 836 838 839 840 841 842 843 843 844 845 846 846 847 848 850 851 852 853 855 855 856 856 856 857 857 857 857 857 856 855
770 773 776 780 783 785 788 790 793 795 797 799 802 804 806 808 810 812 814 815 817 819 821 823 824 826 828 829 831 832 833 834 835 836 838 838 839 841 841 842 843 843 844 845 846 847 848 849 850 851 853 854 854 855 855 855 856 856 856 856 856 855 855
769 772 775 779 781 784 786 788 791 793 795 798 801 802 805 807 808 810 812 814 816 818 820 822 823 825 826 828 829 831 832 834 835 836 837 838 839 840 840 841 842 843 843 844 845 846 847 848 849 850 852 853 853 853 854 855 855 855 856 856 855 855 854
767 771 774 777 779 782 784 786 789 791 793 796 799 801 803 805 807 809 811 813 815 816 818 820 822 823 825 826 828 829 831 833 834 835 836 838 839 839 840 840 841 842 842 843 844 845 846 847 848 849 850 851 852 853 853 854 854 855 855 855 855 854 854
766 769 772 775 777 780 782 785 787 789 791 794 797 800 802 804 806 808 809 811 813 815 817 818 820 822 823 825 826 828 830 831 833 834 836 838 838 838 839 840 840 841 842 842 843 844 845 846 847 848 849 850 851 851 852 853 853 854 854 854 854 853 853
764 767 770 773 776 778 781 783 786 788 791 793 796 799 801 803 805 807 809 810 811 813 815 817 819 821 822 824 825 827 829 830 831 833 834 835 837 837 838 839 839 840 841 841 842 843 844 845 846 847 848 849 850 850 851 852 852 852 852 852 852 852 852
762 765 768 772 775 778 780 783 785 788 790 793 795 798 800 802 804 806 808 809 811 813 814 816 818 820 821 823 824 826 827 828 829 831 832 833 834 836 837 838 838 839 840 840 841 842 843 844 844 845 847 847 848 849 850 850 851 851 851 851 851 851 851
761 764 767 771 775 778 780 782 785 787 790 792 795 797 800 801 803 805 806 808 810 812 814 815 817 819 820 822 823 824 825 826 828 830 831 832 833 834 835 836 837 838 838 839 840 841 841 842 843 843 844 846 847 847 848 849 849 849 849 850 850 850 849
760 764 767 770 774 777 779 782 784 787 789 792 794 797 799 801 802 804 806 807 809 812 814 815 816 817 819 820 821 822 824 825 826 829 830 831 832 832 833 834 835 836 836 837 838 838 839 840 841 841 842 843 844 845 846 847 847 847 848 848 848 848 847
760 763 766 770 773 776 779 782 784 786 789 791 794 796 798 799 801 802 804 806 808 811 813 814 815 816 817 819 820 821 822 823 825 827 828 829 830 831 832 833 833 834 835 835 836 836 837 838 838 839 840 841 842 842 843 844 844 845 845 846 846 846 846
760 763 766 769 772 776 778 781 783 786 788 790 793 794 796 797 799 800 802 804 806 809 810 812 813 815 816 818 819 820 821 822 823 825 826 827 829 830 831 831 832 833 833 833 834 835 835 836 837 837 838 838 839 840 840 841 841 842 843 843 843 844 844